TimeMST,TemperatureF,Dew PointF,Humidity,Sea Level PressureIn,VisibilityMPH,Wind Direction,Wind SpeedMPH,Gust SpeedMPH,PrecipitationIn,Events,Conditions,WindDirDegrees,DateUTC
12:56 AM,3.9,-2.9,73,30.03,9.0,WNW,24.2,28.8,N/A,,Overcast,300,2014-02-01 07:56:00
1:56 AM,3.0,-4.0,73,30.05,10.0,NW,16.1,-,0.00,,Overcast,320,2014-02-01 08:56:00
2:42 AM,1.9,-5.1,72,29.92,10.0,NW,20.7,-,N/A,,Scattered Clouds,320,2014-02-01 09:42:00
2:56 AM,1.9,-5.1,72,30.08,10.0,NW,17.3,-,N/A,,Mostly Cloudy,320,2014-02-01 09:56:00
3:56 AM,-0.0,-5.1,79,30.10,5.0,NW,9.2,-,N/A,,Haze,320,2014-02-01 10:56:00
4:56 AM,1.9,-4.0,76,30.12,9.0,NW,16.1,-,N/A,,Overcast,310,2014-02-01 11:56:00
5:24 AM,1.0,-5.1,75,29.96,10.0,WNW,12.7,-,N/A,,Partly Cloudy,300,2014-02-01 12:24:00
5:56 AM,1.0,-5.1,75,30.14,10.0,WNW,11.5,-,N/A,,Overcast,300,2014-02-01 12:56:00
6:11 AM,1.9,-4.0,76,29.97,10.0,WNW,12.7,-,N/A,,Overcast,290,2014-02-01 13:11:00
6:56 AM,3.9,-2.9,73,30.16,10.0,WNW,19.6,-,N/A,,Overcast,300,2014-02-01 13:56:00
7:56 AM,3.0,-2.9,76,30.18,4.0,NW,18.4,-,0.00,Snow,Light Snow,310,2014-02-01 14:56:00
8:56 AM,5.0,-2.0,73,30.20,6.0,WNW,23.0,-,0.00,Snow,Light Snow,300,2014-02-01 15:56:00
9:30 AM,3.9,-2.9,73,30.04,2.5,WNW,18.4,-,0.00,Snow,Light Snow,300,2014-02-01 16:30:00
9:37 AM,3.9,-2.9,73,30.04,6.0,WNW,18.4,-,0.00,,Haze,300,2014-02-01 16:37:00
9:56 AM,5.0,-2.9,70,30.22,8.0,WNW,19.6,-,0.00,,Overcast,300,2014-02-01 16:56:00
10:56 AM,8.1,-0.9,67,30.22,10.0,WNW,17.3,-,0.00,,Overcast,300,2014-02-01 17:56:00
11:32 AM,8.1,-2.0,64,30.04,10.0,WNW,19.6,-,N/A,,Overcast,300,2014-02-01 18:32:00
11:56 AM,9.0,-0.9,64,30.22,10.0,WNW,19.6,-,N/A,,Overcast,300,2014-02-01 18:56:00
12:09 PM,9.0,-0.9,64,30.04,8.0,NW,17.3,-,0.00,Snow,Light Snow,310,2014-02-01 19:09:00
12:33 PM,10.0,-0.0,64,30.03,5.0,WNW,18.4,-,0.00,Snow,Light Snow,300,2014-02-01 19:33:00
12:56 PM,10.9,1.0,64,30.19,6.0,WNW,18.4,-,0.00,Snow,Light Snow,300,2014-02-01 19:56:00
1:20 PM,10.9,1.9,67,30.02,3.0,WNW,20.7,-,0.00,Snow,Light Snow,290,2014-02-01 20:20:00
1:24 PM,10.0,1.0,67,30.02,1.8,WNW,17.3,-,0.00,Snow,Light Snow,290,2014-02-01 20:24:00
1:36 PM,10.0,1.0,67,30.02,3.0,WNW,20.7,26.5,0.00,Snow,Light Snow,290,2014-02-01 20:36:00
1:44 PM,10.0,1.0,67,30.02,1.8,WNW,19.6,-,0.00,Snow,Light Snow,290,2014-02-01 20:44:00
1:52 PM,10.4,1.4,67,30.02,2.0,WNW,19.6,-,0.00,Snow,Light Snow,300,2014-02-01 20:52:00
1:56 PM,10.0,-0.0,64,30.19,9.0,WNW,21.9,-,0.00,,Overcast,300,2014-02-01 20:56:00
2:56 PM,9.0,-2.0,61,30.21,7.0,West,17.3,-,0.00,Snow,Light Snow,280,2014-02-01 21:56:00
3:56 PM,8.1,-0.9,67,30.23,6.0,WNW,15.0,-,0.00,Snow,Light Snow,300,2014-02-01 22:56:00
4:56 PM,8.1,-0.9,67,30.23,10.0,WNW,9.2,-,0.00,,Overcast,290,2014-02-01 23:56:00
5:35 PM,8.1,1.0,73,30.05,1.8,West,12.7,-,0.00,Snow,Light Snow,280,2014-02-02 00:35:00
5:47 PM,8.1,1.9,76,30.05,4.0,WNW,12.7,-,0.00,Snow,Light Snow,290,2014-02-02 00:47:00
5:56 PM,8.1,1.0,73,30.23,10.0,WNW,11.5,-,0.00,,Overcast,290,2014-02-02 00:56:00
6:56 PM,7.0,-0.9,70,30.22,10.0,West,10.4,-,N/A,,Overcast,260,2014-02-02 01:56:00
7:56 PM,7.0,1.0,77,30.22,10.0,WSW,8.1,-,N/A,,Overcast,240,2014-02-02 02:56:00
8:56 PM,8.1,1.9,76,30.21,7.0,West,6.9,-,0.00,Snow,Light Snow,260,2014-02-02 03:56:00
9:56 PM,9.0,1.9,73,30.20,10.0,WSW,9.2,-,0.00,,Overcast,250,2014-02-02 04:56:00
10:04 PM,9.0,1.9,73,30.03,10.0,WSW,10.4,-,N/A,,Overcast,250,2014-02-02 05:04:00
10:56 PM,9.0,1.9,73,30.19,10.0,WSW,11.5,-,N/A,,Overcast,250,2014-02-02 05:56:00
11:48 PM,3.0,-2.9,76,30.02,10.0,SW,10.4,-,N/A,,Scattered Clouds,230,2014-02-02 06:48:00
11:56 PM,1.9,-4.0,76,30.19,10.0,SW,9.2,-,N/A,,Partly Cloudy,230,2014-02-02 06:56:00